FDX15Z EDDK-KBOS

Flight info

Callsign FDX15Z
Flight time N/A
Altitude 32000
Route NVO2R NVO Y868 SOGRI DCT DENUT L610 KOPUL Q60 OKSAW DCT BIBPE DCT FELCA DCT OFSOX DCT SLANY DCT TOBOR/M083F340 DCT 53N020W 53N030W 5230N04000W 50N050W DCT ELSIR/N0470F340 DCT TUSKY DCT EURRO OOSHN5
Aircraft B77L/H-SDE1E2E3FGHIJ2J3J4J5M1RWXY/LB1D1

Departure

Time 2026-05-06 18:56
Airport Cologne Bonn Airport (EDDK)

Arrival

Time N/A
Airport Boston Logan International Airport (KBOS)
Time Latitude Longitude Altitude Speed Heading
2026-05-06 18:36 50.87251 7.13287 239 ft 0 kts 227°
2026-05-06 18:47 50.87253 7.13291 239 ft 1 kts 227°
2026-05-06 18:47 50.87257 7.13298 239 ft 1 kts 227°
2026-05-06 18:47 50.87263 7.13309 239 ft 1 kts 227°
2026-05-06 18:47 50.87271 7.13322 239 ft 2 kts 227°
2026-05-06 18:48 50.87280 7.13337 239 ft 2 kts 216°
2026-05-06 18:48 50.87291 7.13348 239 ft 2 kts 203°
2026-05-06 18:48 50.87303 7.13355 239 ft 2 kts 192°
2026-05-06 18:48 50.87315 7.13357 239 ft 2 kts 167°
2026-05-06 18:49 50.87323 7.13353 239 ft 0 kts 143°
2026-05-06 18:49 50.87296 7.13386 240 ft 14 kts 140°
2026-05-06 18:50 50.87212 7.13506 242 ft 16 kts 137°
2026-05-06 18:50 50.87127 7.13628 244 ft 16 kts 137°
2026-05-06 18:50 50.87043 7.13752 247 ft 16 kts 137°
2026-05-06 18:50 50.86958 7.13874 248 ft 16 kts 137°
2026-05-06 18:51 50.86873 7.13997 249 ft 17 kts 137°
2026-05-06 18:51 50.86786 7.14116 255 ft 17 kts 151°
2026-05-06 18:51 50.86696 7.14192 259 ft 1 kts 137°
2026-05-06 18:52 50.86679 7.14218 260 ft 9 kts 137°
2026-05-06 18:52 50.86602 7.14328 262 ft 17 kts 137°
2026-05-06 18:52 50.86513 7.14456 262 ft 17 kts 137°
2026-05-06 18:53 50.86424 7.14585 267 ft 18 kts 137°
2026-05-06 18:53 50.86301 7.14764 271 ft 32 kts 137°
2026-05-06 18:53 50.86158 7.14972 275 ft 27 kts 138°
2026-05-06 18:53 50.86020 7.15169 279 ft 27 kts 136°
2026-05-06 18:54 50.85884 7.15369 286 ft 27 kts 138°
2026-05-06 18:54 50.85746 7.15567 299 ft 27 kts 137°
2026-05-06 18:54 50.85610 7.15766 304 ft 27 kts 137°
2026-05-06 18:54 50.85473 7.15965 306 ft 27 kts 138°
2026-05-06 18:55 50.85349 7.16180 310 ft 27 kts 112°
2026-05-06 18:55 50.85390 7.16449 318 ft 27 kts 45°
2026-05-06 18:55 50.85571 7.16493 316 ft 34 kts 329°
2026-05-06 18:55 50.85877 7.16052 308 ft 94 kts 317°
2026-05-06 18:56 50.86538 7.15095 269 ft 161 kts 317°
2026-05-06 18:56 50.87426 7.13813 690 ft 175 kts 318°
2026-05-06 18:56 50.88347 7.12482 1360 ft 182 kts 318°
2026-05-06 18:56 50.89326 7.11089 1697 ft 200 kts 319°
2026-05-06 18:57 50.90378 7.09474 1858 ft 223 kts 310°
2026-05-06 18:57 50.91090 7.07176 2121 ft 244 kts 282°
2026-05-06 18:57 50.91042 7.04439 2663 ft 255 kts 256°
2026-05-06 18:57 50.90412 7.01780 3230 ft 263 kts 252°
2026-05-06 18:58 50.89812 6.99043 3949 ft 263 kts 254°
2026-05-06 18:58 50.89234 6.96288 4679 ft 262 kts 254°
2026-05-06 18:58 50.88655 6.93521 5020 ft 267 kts 254°
2026-05-06 18:58 50.88061 6.90701 5008 ft 271 kts 254°
2026-05-06 18:59 50.87462 6.87870 5247 ft 270 kts 254°
2026-05-06 18:59 50.86864 6.85053 6023 ft 271 kts 254°
2026-05-06 18:59 50.86260 6.82217 6695 ft 274 kts 254°
2026-05-06 18:59 50.85645 6.79331 7276 ft 280 kts 254°
2026-05-06 19:00 50.85019 6.76395 7859 ft 285 kts 254°
2026-05-06 19:00 50.84382 6.73406 8477 ft 289 kts 254°
2026-05-06 19:00 50.83727 6.70348 9075 ft 294 kts 254°
2026-05-06 19:00 50.83064 6.67256 9673 ft 299 kts 255°
2026-05-06 19:01 50.82406 6.64118 10195 ft 302 kts 258°
2026-05-06 19:01 50.82171 6.60785 10374 ft 313 kts 275°
2026-05-06 19:01 50.82270 6.57249 10538 ft 333 kts 275°
2026-05-06 19:01 50.82364 6.53465 10754 ft 354 kts 274°
2026-05-06 19:02 50.82440 6.49480 11138 ft 368 kts 273°
2026-05-06 19:02 50.82501 6.45395 11761 ft 375 kts 273°
2026-05-06 19:02 50.82552 6.41262 12549 ft 377 kts 272°
2026-05-06 19:02 50.82597 6.37114 13407 ft 379 kts 272°
2026-05-06 19:03 50.82639 6.32936 14164 ft 381 kts 272°
2026-05-06 19:03 50.82680 6.28724 14814 ft 385 kts 272°
2026-05-06 19:03 50.82719 6.24462 15476 ft 389 kts 271°
2026-05-06 19:03 50.82756 6.20167 16151 ft 393 kts 271°
2026-05-06 19:04 50.82793 6.15825 16820 ft 396 kts 271°
2026-05-06 19:04 50.82828 6.11507 17465 ft 400 kts 271°
2026-05-06 19:04 50.82863 6.07134 18143 ft 402 kts 271°
2026-05-06 19:04 50.82896 6.02662 18723 ft 405 kts 271°
2026-05-06 19:05 50.82913 5.98195 19246 ft 409 kts 272°
2026-05-06 19:05 50.83197 5.93684 19703 ft 414 kts 280°
2026-05-06 19:05 50.83888 5.89245 20236 ft 418 kts 287°
2026-05-06 19:05 50.84762 5.84850 20770 ft 421 kts 287°
2026-05-06 19:06 50.85625 5.80387 21302 ft 425 kts 286°
2026-05-06 19:06 50.86479 5.75896 21817 ft 429 kts 286°
2026-05-06 19:06 50.87334 5.71351 22335 ft 432 kts 286°
2026-05-06 19:06 50.88189 5.66772 22848 ft 436 kts 286°
2026-05-06 19:07 50.89049 5.62146 23374 ft 439 kts 286°
2026-05-06 19:07 50.89910 5.57502 23841 ft 441 kts 286°
2026-05-06 19:07 50.90777 5.52817 23900 ft 445 kts 286°
2026-05-06 19:07 50.91643 5.48122 23909 ft 443 kts 286°
2026-05-06 19:08 50.92504 5.43443 23917 ft 442 kts 285°
2026-05-06 19:08 50.93359 5.38757 24025 ft 444 kts 285°
2026-05-06 19:08 50.94183 5.34030 24453 ft 446 kts 284°
2026-05-06 19:08 50.94994 5.29266 24928 ft 448 kts 284°
2026-05-06 19:09 50.95801 5.24483 25385 ft 450 kts 284°
2026-05-06 19:09 50.96610 5.19670 25803 ft 453 kts 284°
2026-05-06 19:09 50.97424 5.14835 26286 ft 454 kts 284°
2026-05-06 19:09 50.98242 5.09980 26688 ft 457 kts 284°
2026-05-06 19:10 50.99066 5.05092 27051 ft 461 kts 284°
2026-05-06 19:10 50.99895 5.00163 27444 ft 464 kts 284°
2026-05-06 19:10 51.00727 4.95205 27842 ft 466 kts 284°
2026-05-06 19:10 51.01562 4.90223 28245 ft 468 kts 284°
2026-05-06 19:11 51.02398 4.85212 28559 ft 471 kts 284°
2026-05-06 19:11 51.03238 4.80166 28886 ft 474 kts 284°
2026-05-06 19:11 51.04080 4.75092 29259 ft 476 kts 284°
2026-05-06 19:11 51.04918 4.70030 29863 ft 472 kts 284°
2026-05-06 19:12 51.05751 4.64977 30307 ft 471 kts 284°
2026-05-06 19:12 51.06577 4.59955 30769 ft 469 kts 284°
2026-05-06 19:12 51.07400 4.54939 31147 ft 469 kts 284°
2026-05-06 19:12 51.08219 4.49928 31534 ft 468 kts 284°
2026-05-06 19:13 51.09035 4.44921 31864 ft 468 kts 284°
2026-05-06 19:13 51.10672 4.34830 31925 ft 472 kts 284°
2026-05-06 19:14 51.12289 4.24804 31930 ft 465 kts 284°
2026-05-06 19:14 51.13890 4.14815 31934 ft 465 kts 283°
2026-05-06 19:15 51.15483 4.04817 31932 ft 466 kts 283°
2026-05-06 19:15 51.17076 3.94800 31945 ft 467 kts 284°
2026-05-06 19:16 51.18665 3.84760 31932 ft 467 kts 283°
2026-05-06 19:16 51.20233 3.74728 31929 ft 467 kts 284°
2026-05-06 19:17 51.21795 3.64669 31926 ft 466 kts 284°
2026-05-06 19:17 51.23343 3.54646 31937 ft 465 kts 283°
2026-05-06 19:18 51.24880 3.44632 31936 ft 464 kts 283°
2026-05-06 19:18 51.26409 3.34615 31959 ft 464 kts 283°
2026-05-06 19:19 51.27927 3.24605 31964 ft 463 kts 283°
2026-05-06 19:19 51.29433 3.14606 31978 ft 463 kts 283°
2026-05-06 19:20 51.30920 3.04671 31961 ft 462 kts 283°
2026-05-06 19:20 51.32401 2.94711 31967 ft 460 kts 283°
2026-05-06 19:21 51.33870 2.84768 31963 ft 459 kts 283°
2026-05-06 19:21 51.35332 2.74821 31980 ft 458 kts 282°
2026-05-06 19:22 51.36613 2.64838 31972 ft 458 kts 280°
2026-05-06 19:22 51.37795 2.54796 31973 ft 459 kts 281°
2026-05-06 19:23 51.38995 2.44745 31980 ft 460 kts 281°
2026-05-06 19:23 51.40203 2.34691 31979 ft 460 kts 281°
2026-05-06 19:24 51.41204 2.26313 31983 ft 461 kts 281°
2026-05-06 19:24 51.42429 2.16243 31980 ft 461 kts 281°
2026-05-06 19:25 51.43661 2.06165 31987 ft 461 kts 281°
2026-05-06 19:25 51.44876 1.96074 31991 ft 461 kts 281°
2026-05-06 19:26 51.46073 1.85984 31987 ft 461 kts 281°
2026-05-06 19:26 51.47237 1.75864 31990 ft 461 kts 280°
2026-05-06 19:27 51.48390 1.65736 31989 ft 462 kts 280°
2026-05-06 19:27 51.49544 1.55561 31992 ft 466 kts 280°
2026-05-06 19:28 51.50705 1.45288 31994 ft 470 kts 280°
2026-05-06 19:28 51.51863 1.34931 31990 ft 471 kts 280°
2026-05-06 19:29 51.53009 1.24578 31996 ft 470 kts 280°
2026-05-06 19:29 51.54139 1.14264 31993 ft 468 kts 279°
2026-05-06 19:30 51.54884 1.03903 31997 ft 466 kts 276°
2026-05-06 19:30 51.55520 0.93563 32019 ft 464 kts 275°
2026-05-06 19:31 51.56155 0.83248 32019 ft 463 kts 275°
2026-05-06 19:31 51.57107 0.67829 32020 ft 462 kts 275°
2026-05-06 19:32 51.57731 0.57569 32027 ft 461 kts 275°
2026-05-06 19:32 51.58346 0.47301 32016 ft 461 kts 275°
2026-05-06 19:33 51.58951 0.37035 32012 ft 461 kts 275°
2026-05-06 19:33 51.59547 0.26774 32017 ft 461 kts 275°
2026-05-06 19:34 51.60132 0.16534 32017 ft 460 kts 275°
2026-05-06 19:34 51.60710 0.06257 32019 ft 460 kts 275°
2026-05-06 19:35 51.61277 -0.03978 32039 ft 460 kts 275°
2026-05-06 19:35 51.61841 -0.14227 32044 ft 460 kts 275°
2026-05-06 19:36 51.62469 -0.24494 32049 ft 460 kts 275°
2026-05-06 19:36 51.63107 -0.34736 32048 ft 460 kts 275°
2026-05-06 19:37 51.63728 -0.44994 32019 ft 460 kts 275°
2026-05-06 19:37 51.64334 -0.55251 32022 ft 460 kts 275°
2026-05-06 19:38 51.64925 -0.65441 32017 ft 460 kts 275°
2026-05-06 19:38 51.65515 -0.75771 32015 ft 460 kts 275°
2026-05-06 19:39 51.66092 -0.86032 32006 ft 460 kts 275°
2026-05-06 19:39 51.66646 -0.96040 32024 ft 460 kts 275°
2026-05-06 19:40 51.67207 -1.06329 32020 ft 461 kts 275°
2026-05-06 19:40 51.67756 -1.16562 32022 ft 461 kts 275°
2026-05-06 19:41 51.68297 -1.26824 32020 ft 461 kts 275°
2026-05-06 19:41 51.68830 -1.37115 32020 ft 461 kts 274°
2026-05-06 19:42 51.69354 -1.47406 32023 ft 461 kts 275°
2026-05-06 19:42 51.69868 -1.57711 32021 ft 461 kts 275°
2026-05-06 19:43 51.70376 -1.68004 32010 ft 461 kts 274°
2026-05-06 19:43 51.71068 -1.78291 32009 ft 461 kts 277°
2026-05-06 19:44 51.71852 -1.88557 32021 ft 461 kts 276°
2026-05-06 19:44 51.72587 -1.98823 32023 ft 461 kts 276°
2026-05-06 19:45 51.73307 -2.09106 32021 ft 461 kts 276°
2026-05-06 19:45 51.74019 -2.19388 32020 ft 461 kts 276°
2026-05-06 19:46 51.74722 -2.29673 32017 ft 461 kts 276°
2026-05-06 19:46 51.75418 -2.39959 32016 ft 461 kts 276°
2026-05-06 19:47 51.76105 -2.50250 32013 ft 461 kts 276°
2026-05-06 19:47 51.76782 -2.60540 32006 ft 461 kts 276°
2026-05-06 19:48 51.77450 -2.70830 32002 ft 461 kts 276°
2026-05-06 19:48 51.78110 -2.81141 32005 ft 462 kts 276°
2026-05-06 19:49 51.78762 -2.91468 32045 ft 463 kts 276°
2026-05-06 19:49 51.79407 -3.01828 32048 ft 464 kts 276°
2026-05-06 19:50 51.80044 -3.12219 32049 ft 466 kts 276°
2026-05-06 19:50 51.80674 -3.22655 32031 ft 467 kts 276°
2026-05-06 19:51 51.81295 -3.33105 32022 ft 468 kts 276°
2026-05-06 19:51 51.81904 -3.43501 32003 ft 468 kts 276°
2026-05-06 19:52 51.82536 -3.53983 32007 ft 469 kts 278°
2026-05-06 19:52 51.83796 -3.64318 32010 ft 469 kts 283°
2026-05-06 19:53 51.85178 -3.74628 32008 ft 470 kts 283°
2026-05-06 19:53 51.86530 -3.84982 32011 ft 470 kts 282°
2026-05-06 19:54 51.87855 -3.95351 31999 ft 471 kts 283°
2026-05-06 19:54 51.89169 -4.05751 32012 ft 472 kts 283°
2026-05-06 19:55 51.90476 -4.16176 32006 ft 473 kts 282°
2026-05-06 19:55 51.91777 -4.26626 32009 ft 474 kts 282°
2026-05-06 19:56 51.93071 -4.37087 32006 ft 474 kts 282°
2026-05-06 19:56 51.94356 -4.47571 32005 ft 475 kts 283°
2026-05-06 19:57 51.95635 -4.58074 32007 ft 475 kts 283°
2026-05-06 19:57 51.96906 -4.68611 32008 ft 477 kts 283°
2026-05-06 19:58 51.98174 -4.79190 32008 ft 478 kts 283°
2026-05-06 19:58 51.99434 -4.89805 32007 ft 480 kts 283°
2026-05-06 19:59 52.00685 -5.00444 32008 ft 480 kts 283°
2026-05-06 19:59 52.01932 -5.11113 32005 ft 482 kts 283°
2026-05-06 20:00 52.03295 -5.21745 32009 ft 480 kts 288°
2026-05-06 20:00 52.05390 -5.32014 32010 ft 479 kts 291°
2026-05-06 20:01 52.07527 -5.42286 32002 ft 479 kts 290°
2026-05-06 20:01 52.09610 -5.52568 32010 ft 479 kts 290°
2026-05-06 20:02 52.11672 -5.62882 32008 ft 479 kts 290°
2026-05-06 20:02 52.13724 -5.73194 32009 ft 479 kts 290°
2026-05-06 20:03 52.15706 -5.83542 31995 ft 480 kts 287°
2026-05-06 20:03 52.16771 -5.94306 32005 ft 483 kts 279°
2026-05-06 20:04 52.17535 -6.05180 32000 ft 484 kts 279°
2026-05-06 20:04 52.18308 -6.16074 32007 ft 485 kts 279°
2026-05-06 20:05 52.19098 -6.26995 31994 ft 485 kts 279°
2026-05-06 20:05 52.19889 -6.37922 32010 ft 486 kts 279°
2026-05-06 20:06 52.20672 -6.48866 31986 ft 486 kts 279°
2026-05-06 20:06 52.21443 -6.59814 31998 ft 486 kts 279°
2026-05-06 20:07 52.22204 -6.70775 32005 ft 487 kts 279°
2026-05-06 20:07 52.22955 -6.81745 32001 ft 487 kts 278°
2026-05-06 20:08 52.23572 -6.90868 31999 ft 487 kts 278°
2026-05-06 20:08 52.24304 -7.01837 32000 ft 487 kts 278°
2026-05-06 20:09 52.25027 -7.12817 32000 ft 487 kts 278°
2026-05-06 20:09 52.25740 -7.23821 31993 ft 487 kts 278°
2026-05-06 20:10 52.26443 -7.34823 31991 ft 488 kts 278°
2026-05-06 20:10 52.27137 -7.45844 31982 ft 488 kts 278°
2026-05-06 20:11 52.27820 -7.56849 32005 ft 487 kts 278°
2026-05-06 20:11 52.28491 -7.67856 31999 ft 487 kts 278°
2026-05-06 20:12 52.29152 -7.78854 31985 ft 486 kts 278°
2026-05-06 20:12 52.29802 -7.89834 31995 ft 486 kts 278°
2026-05-06 20:13 52.30441 -8.00819 31993 ft 485 kts 277°
2026-05-06 20:13 52.31071 -8.11805 31999 ft 486 kts 277°
2026-05-06 20:14 52.31686 -8.22721 31986 ft 486 kts 277°
2026-05-06 20:14 52.32296 -8.33736 31995 ft 487 kts 277°
2026-05-06 20:15 52.32896 -8.44760 31986 ft 487 kts 277°
2026-05-06 20:15 52.33486 -8.55796 31993 ft 488 kts 277°
2026-05-06 20:16 52.34068 -8.66858 31994 ft 488 kts 277°
2026-05-06 20:16 52.34639 -8.77923 31996 ft 489 kts 277°
2026-05-06 20:17 52.35199 -8.89000 31990 ft 489 kts 277°
2026-05-06 20:17 52.35750 -9.00072 31990 ft 488 kts 276°
2026-05-06 20:18 52.36290 -9.11150 31996 ft 489 kts 276°
2026-05-06 20:18 52.36821 -9.22238 32003 ft 489 kts 276°
2026-05-06 20:19 52.37340 -9.33332 31997 ft 489 kts 276°
2026-05-06 20:19 52.37849 -9.44431 31999 ft 489 kts 276°
2026-05-06 20:20 52.38349 -9.55537 31996 ft 489 kts 276°
2026-05-06 20:20 52.38837 -9.66632 31993 ft 488 kts 276°
2026-05-06 20:21 52.39315 -9.77721 31990 ft 488 kts 276°
2026-05-06 20:21 52.39782 -9.88798 31991 ft 487 kts 276°
2026-05-06 20:22 52.40238 -9.99867 31992 ft 487 kts 275°
2026-05-06 20:22 52.40683 -10.10941 31994 ft 487 kts 275°
2026-05-06 20:23 52.41119 -10.22026 31994 ft 488 kts 275°
2026-05-06 20:23 52.41545 -10.33119 31994 ft 488 kts 275°
2026-05-06 20:24 52.41960 -10.44223 31996 ft 489 kts 275°
2026-05-06 20:24 52.42363 -10.55273 31996 ft 489 kts 275°
2026-05-06 20:25 52.42761 -10.66468 31991 ft 489 kts 275°
2026-05-06 20:25 52.43143 -10.77525 31990 ft 489 kts 275°
2026-05-06 20:26 52.43518 -10.88650 31995 ft 489 kts 275°
2026-05-06 20:26 52.43881 -10.99775 31990 ft 489 kts 274°
2026-05-06 20:27 52.44235 -11.10894 31992 ft 488 kts 274°
2026-05-06 20:27 52.44577 -11.22007 31990 ft 488 kts 274°
2026-05-06 20:28 52.44909 -11.33107 31992 ft 488 kts 274°
2026-05-06 20:28 52.45230 -11.44218 31992 ft 488 kts 274°
2026-05-06 20:29 52.45541 -11.55311 31994 ft 486 kts 274°
2026-05-06 20:29 52.45839 -11.66356 31988 ft 484 kts 274°
2026-05-06 20:30 52.46267 -11.82871 31990 ft 482 kts 274°
2026-05-06 20:31 52.46539 -11.93854 31990 ft 482 kts 273°
2026-05-06 20:31 52.46800 -12.04834 31983 ft 482 kts 273°
2026-05-06 20:32 52.47051 -12.15819 31987 ft 482 kts 273°
2026-05-06 20:32 52.47292 -12.26815 31986 ft 483 kts 273°
2026-05-06 20:33 52.47523 -12.37820 31989 ft 483 kts 273°
2026-05-06 20:33 52.47745 -12.48839 31989 ft 484 kts 273°
2026-05-06 20:34 52.47956 -12.59864 31989 ft 484 kts 272°
2026-05-06 20:34 52.48157 -12.70895 31983 ft 484 kts 272°
2026-05-06 20:35 52.48347 -12.81928 31980 ft 484 kts 272°
2026-05-06 20:35 52.48526 -12.92881 31980 ft 484 kts 272°
2026-05-06 20:36 52.48696 -13.03896 31982 ft 483 kts 272°
2026-05-06 20:36 52.48856 -13.14931 31979 ft 483 kts 272°
2026-05-06 20:37 52.49006 -13.25940 31977 ft 483 kts 272°
2026-05-06 20:37 52.49145 -13.36961 31979 ft 483 kts 272°
2026-05-06 20:38 52.49274 -13.47959 31978 ft 482 kts 271°
2026-05-06 20:38 52.49392 -13.58930 31972 ft 480 kts 271°
2026-05-06 20:39 52.49500 -13.69849 31972 ft 478 kts 271°
2026-05-06 20:39 52.49596 -13.80721 31975 ft 476 kts 271°
2026-05-06 20:40 52.49683 -13.91570 31973 ft 475 kts 271°
2026-05-06 20:40 52.49760 -14.02414 31978 ft 475 kts 271°
2026-05-06 20:41 52.49828 -14.13271 31977 ft 476 kts 270°
2026-05-06 20:41 52.49885 -14.24146 31976 ft 477 kts 270°
2026-05-06 20:42 52.49931 -14.35039 31968 ft 478 kts 270°
2026-05-06 20:42 52.49969 -14.45942 31976 ft 478 kts 270°
2026-05-06 20:43 52.49996 -14.56844 31971 ft 478 kts 270°
2026-05-06 20:43 52.50013 -14.67734 31974 ft 477 kts 269°
2026-05-06 20:44 52.50019 -14.78616 31972 ft 477 kts 269°
2026-05-06 20:44 52.50016 -14.89421 31976 ft 476 kts 269°
2026-05-06 20:45 52.50140 -15.00359 31969 ft 477 kts 274°
2026-05-06 20:45 52.51265 -15.11048 32207 ft 480 kts 281°
2026-05-06 20:45 52.51945 -15.16403 32593 ft 479 kts 281°
2026-05-06 20:46 52.52626 -15.21819 32979 ft 477 kts 281°
2026-05-06 20:46 52.53278 -15.27089 33307 ft 477 kts 280°
2026-05-06 20:46 52.53928 -15.32432 33605 ft 477 kts 280°
2026-05-06 20:46 52.54570 -15.37779 33891 ft 478 kts 280°
2026-05-06 20:47 52.55210 -15.43165 33930 ft 482 kts 280°
2026-05-06 20:47 52.56482 -15.53965 33958 ft 480 kts 280°
2026-05-06 20:48 52.57734 -15.64676 33962 ft 475 kts 279°
2026-05-06 20:48 52.58972 -15.75346 33975 ft 475 kts 279°
2026-05-06 20:49 52.60198 -15.86009 33968 ft 475 kts 279°
2026-05-06 20:49 52.61417 -15.96692 33974 ft 475 kts 279°
2026-05-06 20:50 52.62627 -16.07393 33973 ft 476 kts 279°
2026-05-06 20:50 52.63829 -16.18106 33976 ft 476 kts 279°
2026-05-06 20:51 52.65023 -16.28837 33970 ft 476 kts 278°
2026-05-06 20:51 52.66205 -16.39558 33963 ft 475 kts 278°
2026-05-06 20:52 52.67374 -16.50263 33968 ft 474 kts 278°
2026-05-06 20:52 52.68533 -16.60960 33963 ft 474 kts 278°
2026-05-06 20:53 52.69680 -16.71638 33960 ft 473 kts 278°
2026-05-06 20:53 52.70815 -16.82303 33968 ft 472 kts 277°
2026-05-06 20:54 52.71940 -16.92969 33972 ft 472 kts 277°
2026-05-06 20:54 52.73054 -17.03636 33967 ft 472 kts 277°
2026-05-06 20:55 52.73974 -17.12511 33962 ft 472 kts 277°
2026-05-06 20:55 52.75072 -17.23194 33977 ft 472 kts 277°
2026-05-06 20:56 52.76160 -17.33883 33968 ft 472 kts 277°
2026-05-06 20:56 52.77239 -17.44579 33957 ft 472 kts 276°
2026-05-06 20:57 52.78308 -17.55275 33962 ft 472 kts 276°
2026-05-06 20:57 52.79367 -17.65981 33967 ft 472 kts 276°
2026-05-06 20:58 52.80417 -17.76690 33967 ft 472 kts 276°
2026-05-06 20:58 52.81457 -17.87409 33963 ft 472 kts 276°
2026-05-06 20:59 52.82488 -17.98129 33975 ft 472 kts 275°
2026-05-06 20:59 52.83509 -18.08859 33966 ft 472 kts 275°
2026-05-06 21:00 52.84521 -18.19590 33978 ft 472 kts 275°
2026-05-06 21:00 52.85522 -18.30314 33970 ft 471 kts 275°
2026-05-06 21:01 52.86503 -18.40946 33978 ft 470 kts 275°
2026-05-06 21:01 52.87480 -18.51634 33978 ft 469 kts 275°
2026-05-06 21:02 52.88446 -18.62309 33961 ft 468 kts 274°
2026-05-06 21:02 52.89401 -18.72972 33965 ft 468 kts 274°
2026-05-06 21:03 52.90345 -18.83626 33972 ft 467 kts 274°
2026-05-06 21:03 52.91278 -18.94281 33966 ft 467 kts 274°
2026-05-06 21:04 52.92203 -19.04946 33963 ft 468 kts 274°
2026-05-06 21:04 52.93119 -19.15622 33971 ft 468 kts 274°
2026-05-06 21:05 52.94026 -19.26310 33976 ft 468 kts 274°
2026-05-06 21:05 52.94923 -19.36997 33972 ft 468 kts 273°
2026-05-06 21:06 52.95810 -19.47682 33972 ft 467 kts 273°
2026-05-06 21:06 52.96685 -19.58357 33971 ft 467 kts 273°
2026-05-06 21:07 52.97550 -19.69026 33977 ft 467 kts 273°
2026-05-06 21:07 52.98406 -19.79708 33974 ft 467 kts 273°
2026-05-06 21:08 52.99253 -19.90419 33976 ft 468 kts 272°
2026-05-06 21:08 53.00072 -20.01140 33972 ft 467 kts 270°
2026-05-06 21:09 53.00549 -20.11812 33984 ft 467 kts 269°
2026-05-06 21:09 53.00960 -20.22571 33988 ft 467 kts 269°
2026-05-06 21:10 53.01370 -20.33341 33991 ft 468 kts 269°
2026-05-06 21:10 53.01783 -20.44113 33979 ft 467 kts 269°
2026-05-06 21:11 53.02191 -20.54874 33983 ft 466 kts 269°
2026-05-06 21:11 53.02589 -20.65618 33979 ft 466 kts 269°
2026-05-06 21:12 53.02976 -20.76343 33993 ft 465 kts 270°
2026-05-06 21:12 53.03352 -20.87053 33982 ft 464 kts 270°
2026-05-06 21:13 53.03718 -20.97741 33982 ft 463 kts 270°
2026-05-06 21:13 53.04074 -21.08412 33983 ft 462 kts 270°
2026-05-06 21:14 53.04420 -21.19069 33983 ft 462 kts 269°
2026-05-06 21:14 53.04755 -21.29719 33986 ft 461 kts 269°
2026-05-06 21:15 53.05081 -21.40366 33989 ft 461 kts 269°
2026-05-06 21:15 53.05398 -21.51023 34000 ft 462 kts 269°
2026-05-06 21:16 53.05705 -21.61685 33985 ft 462 kts 269°
2026-05-06 21:16 53.06001 -21.72268 33989 ft 461 kts 269°
2026-05-06 21:17 53.06289 -21.82915 33988 ft 461 kts 269°
2026-05-06 21:17 53.06568 -21.93563 33995 ft 461 kts 269°
2026-05-06 21:18 53.06837 -22.04208 33990 ft 460 kts 269°
2026-05-06 21:18 53.07096 -22.14837 33994 ft 460 kts 269°
2026-05-06 21:19 53.07345 -22.25456 33991 ft 460 kts 269°
2026-05-06 21:19 53.07585 -22.36070 33994 ft 459 kts 269°
2026-05-06 21:20 53.07815 -22.46684 33999 ft 459 kts 269°
2026-05-06 21:20 53.08035 -22.57300 33994 ft 459 kts 269°
2026-05-06 21:21 53.08246 -22.67916 34007 ft 459 kts 269°
2026-05-06 21:21 53.08448 -22.78532 33995 ft 459 kts 269°
2026-05-06 21:22 53.08641 -22.89143 33993 ft 459 kts 269°
2026-05-06 21:22 53.08824 -22.99743 34004 ft 458 kts 269°
2026-05-06 21:23 53.08997 -23.10342 33996 ft 458 kts 269°
2026-05-06 21:23 53.09160 -23.20867 33998 ft 458 kts 269°
2026-05-06 21:24 53.09314 -23.31467 33998 ft 458 kts 269°
2026-05-06 21:24 53.09459 -23.42070 33997 ft 458 kts 268°
2026-05-06 21:25 53.09595 -23.52677 33996 ft 459 kts 268°
2026-05-06 21:25 53.09721 -23.63296 33995 ft 460 kts 268°
2026-05-06 21:26 53.09839 -23.73934 34004 ft 460 kts 268°
2026-05-06 21:26 53.09946 -23.84593 34004 ft 461 kts 268°
2026-05-06 21:27 53.10044 -23.95270 33992 ft 461 kts 268°
2026-05-06 21:27 53.10134 -24.05938 33997 ft 461 kts 268°
2026-05-06 21:28 53.10213 -24.16600 34003 ft 461 kts 269°
2026-05-06 21:28 53.10283 -24.27257 34014 ft 461 kts 268°
2026-05-06 21:29 53.10343 -24.37858 34001 ft 461 kts 268°
2026-05-06 21:29 53.10394 -24.48529 34003 ft 462 kts 268°
2026-05-06 21:30 53.10435 -24.59210 34016 ft 462 kts 268°
2026-05-06 21:30 53.10466 -24.69899 34013 ft 462 kts 268°
2026-05-06 21:31 53.10488 -24.80616 34001 ft 463 kts 268°
2026-05-06 21:31 53.10501 -24.91347 34016 ft 464 kts 268°
2026-05-06 21:32 53.10504 -25.02102 34006 ft 465 kts 268°
2026-05-06 21:32 53.10489 -25.18262 34007 ft 466 kts 268°
2026-05-06 21:33 53.10469 -25.29035 34008 ft 466 kts 269°
2026-05-06 21:33 53.10438 -25.39805 34014 ft 465 kts 269°
2026-05-06 21:34 53.10397 -25.50568 34008 ft 465 kts 269°
2026-05-06 21:34 53.10347 -25.61248 34009 ft 465 kts 268°
2026-05-06 21:35 53.10287 -25.72016 34011 ft 465 kts 268°
2026-05-06 21:35 53.10217 -25.82789 34008 ft 465 kts 268°
2026-05-06 21:36 53.10137 -25.93554 34007 ft 465 kts 269°
2026-05-06 21:36 53.10048 -26.04313 34018 ft 465 kts 268°
2026-05-06 21:37 53.09949 -26.15076 34020 ft 465 kts 269°
2026-05-06 21:37 53.09840 -26.25840 34008 ft 465 kts 268°
2026-05-06 21:38 53.09722 -26.36605 34020 ft 465 kts 269°
2026-05-06 21:38 53.09594 -26.47355 34007 ft 464 kts 268°
2026-05-06 21:39 53.09456 -26.58100 34016 ft 464 kts 268°
2026-05-06 21:39 53.09310 -26.68827 34011 ft 464 kts 268°
2026-05-06 21:40 53.09153 -26.79556 34015 ft 464 kts 268°
2026-05-06 21:40 53.08989 -26.90145 34005 ft 464 kts 268°
2026-05-06 21:41 53.08813 -27.00876 34021 ft 464 kts 268°
2026-05-06 21:41 53.08627 -27.11605 34009 ft 464 kts 268°
2026-05-06 21:42 53.08432 -27.22320 34010 ft 464 kts 268°
2026-05-06 21:42 53.08227 -27.33050 34008 ft 464 kts 268°
2026-05-06 21:43 53.08013 -27.43786 34010 ft 464 kts 268°
2026-05-06 21:43 53.07788 -27.54508 34017 ft 464 kts 268°
2026-05-06 21:44 53.07555 -27.65228 34014 ft 464 kts 268°
2026-05-06 21:44 53.07311 -27.75955 34013 ft 464 kts 268°
2026-05-06 21:45 53.07058 -27.86674 34020 ft 464 kts 268°
2026-05-06 21:45 53.06796 -27.97384 34017 ft 464 kts 268°
2026-05-06 21:46 53.06523 -28.08122 34016 ft 465 kts 268°
2026-05-06 21:46 53.06288 -28.17057 34008 ft 466 kts 268°
2026-05-06 21:47 53.05996 -28.27837 34008 ft 467 kts 268°
2026-05-06 21:47 53.05695 -28.38619 33998 ft 467 kts 268°
2026-05-06 21:48 53.05383 -28.49405 34025 ft 466 kts 268°
2026-05-06 21:48 53.05063 -28.60165 33996 ft 466 kts 268°
2026-05-06 21:49 53.04732 -28.70931 34006 ft 467 kts 268°
2026-05-06 21:49 53.04391 -28.81728 34013 ft 469 kts 268°
2026-05-06 21:50 53.04039 -28.92539 34015 ft 469 kts 268°
2026-05-06 21:50 53.03677 -29.03374 34024 ft 470 kts 267°
2026-05-06 21:51 53.03305 -29.14194 34007 ft 469 kts 268°
2026-05-06 21:51 53.02923 -29.25007 34009 ft 469 kts 268°
2026-05-06 21:52 53.02532 -29.35830 34001 ft 469 kts 268°
2026-05-06 21:52 53.02130 -29.46663 34017 ft 470 kts 268°
2026-05-06 21:53 53.01720 -29.57432 33998 ft 471 kts 268°
2026-05-06 21:53 53.01294 -29.68357 34015 ft 471 kts 268°
2026-05-06 21:54 53.00865 -29.79116 34001 ft 471 kts 267°
2026-05-06 21:54 53.00421 -29.89997 34003 ft 471 kts 267°
2026-05-06 21:55 52.99985 -30.00861 33999 ft 472 kts 269°
2026-05-06 21:55 52.99848 -30.11738 33990 ft 472 kts 271°
2026-05-06 21:56 52.99785 -30.22633 34003 ft 472 kts 270°
2026-05-06 21:56 52.99702 -30.33537 33984 ft 473 kts 270°
2026-05-06 21:57 52.99591 -30.44470 34004 ft 474 kts 270°
2026-05-06 21:57 52.99461 -30.55424 34002 ft 475 kts 271°
2026-05-06 21:58 52.99319 -30.66405 34008 ft 476 kts 270°
2026-05-06 21:58 52.99168 -30.77384 34002 ft 476 kts 270°
2026-05-06 21:59 52.99008 -30.88366 33996 ft 476 kts 270°
2026-05-06 21:59 52.98838 -30.99345 33998 ft 476 kts 270°
2026-05-06 22:00 52.98658 -31.10328 34010 ft 476 kts 270°
2026-05-06 22:00 52.98467 -31.21319 34011 ft 477 kts 270°
2026-05-06 22:01 52.98266 -31.32324 34013 ft 478 kts 270°
2026-05-06 22:01 52.98054 -31.43350 34011 ft 478 kts 270°
2026-05-06 22:02 52.97832 -31.54377 34011 ft 478 kts 270°
2026-05-06 22:02 52.97599 -31.65414 34018 ft 479 kts 270°
2026-05-06 22:03 52.97357 -31.76454 34020 ft 479 kts 270°
2026-05-06 22:03 52.97104 -31.87493 34021 ft 479 kts 270°
2026-05-06 22:04 52.96840 -31.98525 34008 ft 479 kts 270°
2026-05-06 22:04 52.96566 -32.09564 34022 ft 479 kts 270°
2026-05-06 22:05 52.96283 -32.20603 34029 ft 479 kts 270°
2026-05-06 22:05 52.95989 -32.31636 34027 ft 479 kts 270°
2026-05-06 22:06 52.95685 -32.42671 34030 ft 479 kts 270°
2026-05-06 22:06 52.95373 -32.53636 34038 ft 479 kts 270°
2026-05-06 22:07 52.95048 -32.64672 34038 ft 479 kts 270°
2026-05-06 22:07 52.94713 -32.75710 34043 ft 479 kts 270°
2026-05-06 22:08 52.94368 -32.86745 34043 ft 479 kts 269°
2026-05-06 22:08 52.94012 -32.97777 34049 ft 479 kts 269°
2026-05-06 22:09 52.93646 -33.08811 34045 ft 479 kts 270°
2026-05-06 22:09 52.93270 -33.19845 34050 ft 479 kts 270°
2026-05-06 22:10 52.92884 -33.30878 34062 ft 480 kts 270°
2026-05-06 22:10 52.92488 -33.41911 34066 ft 480 kts 270°
2026-05-06 22:11 52.92081 -33.52951 34066 ft 480 kts 270°
2026-05-06 22:11 52.91663 -33.63998 34076 ft 480 kts 270°
2026-05-06 22:12 52.91235 -33.75041 34076 ft 480 kts 270°
2026-05-06 22:12 52.90796 -33.86078 34072 ft 480 kts 270°
2026-05-06 22:13 52.90349 -33.97102 34080 ft 480 kts 270°
2026-05-06 22:13 52.89891 -34.08125 34072 ft 480 kts 270°
2026-05-06 22:14 52.89422 -34.19150 34092 ft 480 kts 270°
2026-05-06 22:14 52.88944 -34.30172 34093 ft 480 kts 270°
2026-05-06 22:15 52.88454 -34.41199 34099 ft 480 kts 270°
2026-05-06 22:15 52.87956 -34.52223 34104 ft 480 kts 270°
2026-05-06 22:16 52.87446 -34.63249 34101 ft 480 kts 270°
2026-05-06 22:16 52.86927 -34.74265 34097 ft 480 kts 270°
2026-05-06 22:17 52.86397 -34.85283 34099 ft 480 kts 270°
2026-05-06 22:17 52.85860 -34.96219 34095 ft 480 kts 270°
2026-05-06 22:18 52.85311 -35.07218 34107 ft 480 kts 270°
2026-05-06 22:18 52.84751 -35.18203 34108 ft 479 kts 271°
2026-05-06 22:19 52.84182 -35.29184 34134 ft 479 kts 270°
2026-05-06 22:19 52.83602 -35.40176 34134 ft 480 kts 270°
2026-05-06 22:20 52.83011 -35.51175 34107 ft 480 kts 271°
2026-05-06 22:20 52.82410 -35.62156 34123 ft 479 kts 271°
2026-05-06 22:21 52.81800 -35.73132 34133 ft 479 kts 271°
2026-05-06 22:21 52.81181 -35.84090 34133 ft 479 kts 270°
2026-05-06 22:22 52.80552 -35.95037 34138 ft 478 kts 270°
2026-05-06 22:22 52.79913 -36.05976 34098 ft 478 kts 271°
2026-05-06 22:23 52.79265 -36.16887 34136 ft 476 kts 271°
2026-05-06 22:23 52.78609 -36.27761 34137 ft 476 kts 271°
2026-05-06 22:24 52.77944 -36.38635 34144 ft 476 kts 271°
2026-05-06 22:24 52.77270 -36.49498 34149 ft 476 kts 271°
2026-05-06 22:25 52.76584 -36.60367 34153 ft 476 kts 271°
2026-05-06 22:25 52.75893 -36.71152 34154 ft 475 kts 271°
2026-05-06 22:26 52.75190 -36.81977 34150 ft 474 kts 271°
2026-05-06 22:26 52.74478 -36.92782 34161 ft 473 kts 271°
2026-05-06 22:27 52.73758 -37.03566 34162 ft 472 kts 271°
2026-05-06 22:27 52.73029 -37.14336 34167 ft 472 kts 271°
2026-05-06 22:28 52.72290 -37.25087 34159 ft 470 kts 271°
2026-05-06 22:28 52.71545 -37.35791 34165 ft 469 kts 271°
2026-05-06 22:29 52.70793 -37.46469 34164 ft 468 kts 271°
2026-05-06 22:29 52.70032 -37.57133 34165 ft 468 kts 271°
2026-05-06 22:30 52.69262 -37.67780 34174 ft 468 kts 271°
2026-05-06 22:30 52.68483 -37.78413 34173 ft 467 kts 271°
2026-05-06 22:31 52.67698 -37.88906 34157 ft 457 kts 271°
2026-05-06 22:31 52.66920 -37.99278 34174 ft 457 kts 271°
2026-05-06 22:32 52.66135 -38.09674 34172 ft 458 kts 271°
2026-05-06 22:32 52.65336 -38.20104 34115 ft 463 kts 272°
2026-05-06 22:33 52.64516 -38.30765 34185 ft 476 kts 271°
2026-05-06 22:33 52.63658 -38.41655 34178 ft 480 kts 271°
2026-05-06 22:34 52.62931 -38.50698 34175 ft 479 kts 271°
2026-05-06 22:34 52.62052 -38.61552 34179 ft 477 kts 271°
2026-05-06 22:35 52.61171 -38.72360 34179 ft 476 kts 271°
2026-05-06 22:35 52.60284 -38.83127 34181 ft 474 kts 271°
2026-05-06 22:36 52.59391 -38.93845 34194 ft 471 kts 271°
2026-05-06 22:36 52.58494 -39.04473 34183 ft 467 kts 271°
2026-05-06 22:37 52.57595 -39.15025 34175 ft 464 kts 271°
2026-05-06 22:37 52.56695 -39.25499 34183 ft 462 kts 271°
2026-05-06 22:38 52.55787 -39.35956 34189 ft 462 kts 271°
2026-05-06 22:38 52.54868 -39.46427 34160 ft 464 kts 271°
2026-05-06 22:39 52.53936 -39.56890 34187 ft 463 kts 271°
2026-05-06 22:39 52.52999 -39.67327 34183 ft 462 kts 271°
2026-05-06 22:40 52.52060 -39.77671 34196 ft 461 kts 271°
2026-05-06 22:40 52.51108 -39.88065 34200 ft 460 kts 271°
2026-05-06 22:41 52.49380 -40.03604 34159 ft 469 kts 263°
2026-05-06 22:42 52.47353 -40.13791 34186 ft 469 kts 262°
2026-05-06 22:42 52.45306 -40.23943 34200 ft 468 kts 262°
2026-05-06 22:43 52.43279 -40.34066 34200 ft 467 kts 262°
2026-05-06 22:43 52.41257 -40.44187 34200 ft 468 kts 262°
2026-05-06 22:44 52.39226 -40.54319 34183 ft 468 kts 261°
2026-05-06 22:44 52.37186 -40.64437 34191 ft 469 kts 261°
2026-05-06 22:45 52.35132 -40.74573 34192 ft 470 kts 261°
2026-05-06 22:45 52.33064 -40.84722 34199 ft 471 kts 261°
2026-05-06 22:46 52.30983 -40.94879 34198 ft 472 kts 261°
2026-05-06 22:46 52.28894 -41.05018 34191 ft 470 kts 260°
2026-05-06 22:47 52.26803 -41.15119 34186 ft 469 kts 260°
2026-05-06 22:47 52.24709 -41.25182 34193 ft 467 kts 260°
2026-05-06 22:48 52.22614 -41.35208 34196 ft 466 kts 260°
2026-05-06 22:48 52.20515 -41.45200 34152 ft 466 kts 259°
2026-05-06 22:49 52.18413 -41.55158 34188 ft 464 kts 259°
2026-05-06 22:49 52.16306 -41.65083 34194 ft 463 kts 259°
2026-05-06 22:50 52.14195 -41.74989 34186 ft 463 kts 259°
2026-05-06 22:50 52.12079 -41.84860 34196 ft 461 kts 259°
2026-05-06 22:51 52.09965 -41.94678 34200 ft 457 kts 258°
2026-05-06 22:51 52.07888 -42.04233 34192 ft 442 kts 259°
2026-05-06 22:52 52.05846 -42.13645 34201 ft 442 kts 259°
2026-05-06 22:52 52.03808 -42.23013 34203 ft 443 kts 259°
2026-05-06 22:53 52.01740 -42.32462 34203 ft 445 kts 258°
2026-05-06 22:53 51.99651 -42.41946 34165 ft 447 kts 258°
2026-05-06 22:54 51.97548 -42.51447 34187 ft 448 kts 258°
2026-05-06 22:54 51.95430 -42.60972 34193 ft 450 kts 258°
2026-05-06 22:55 51.93297 -42.70518 34189 ft 451 kts 258°
2026-05-06 22:55 51.91153 -42.80070 34189 ft 452 kts 258°
2026-05-06 22:56 51.88999 -42.89627 34166 ft 451 kts 257°
2026-05-06 22:56 51.86842 -42.99148 34183 ft 450 kts 257°
2026-05-06 22:57 51.84680 -43.08653 34187 ft 450 kts 257°
2026-05-06 22:57 51.82515 -43.18127 34171 ft 449 kts 257°
2026-05-06 22:58 51.80346 -43.27580 34182 ft 448 kts 257°
2026-05-06 22:58 51.78171 -43.37017 34182 ft 448 kts 257°
2026-05-06 22:59 51.75991 -43.46432 34182 ft 448 kts 257°
2026-05-06 22:59 51.73804 -43.55840 34182 ft 448 kts 256°
2026-05-06 23:00 51.71606 -43.65247 34183 ft 448 kts 256°
2026-05-06 23:00 51.69402 -43.74643 34189 ft 448 kts 256°
2026-05-06 23:01 51.67189 -43.84038 34177 ft 448 kts 256°
2026-05-06 23:01 51.64969 -43.93414 34185 ft 448 kts 256°
2026-05-06 23:02 51.62742 -44.02783 34183 ft 448 kts 256°
2026-05-06 23:02 51.60506 -44.12148 34183 ft 448 kts 256°
2026-05-06 23:03 51.58263 -44.21507 34182 ft 449 kts 256°
2026-05-06 23:03 51.56011 -44.30859 34174 ft 448 kts 255°
2026-05-06 23:04 51.53752 -44.40199 34179 ft 449 kts 255°
2026-05-06 23:04 51.51485 -44.49534 34185 ft 449 kts 255°
2026-05-06 23:05 51.49209 -44.58868 34175 ft 449 kts 254°
2026-05-06 23:05 51.46923 -44.68200 34181 ft 449 kts 254°
2026-05-06 23:06 51.44646 -44.77456 34175 ft 449 kts 254°
2026-05-06 23:06 51.42345 -44.86772 34171 ft 449 kts 254°
2026-05-06 23:07 51.40037 -44.96077 34172 ft 450 kts 254°
2026-05-06 23:07 51.37720 -45.05378 34172 ft 450 kts 254°
2026-05-06 23:08 51.35382 -45.14727 34155 ft 450 kts 253°
2026-05-06 23:08 51.33067 -45.23940 34171 ft 449 kts 253°
2026-05-06 23:09 51.30730 -45.33210 34175 ft 449 kts 253°
2026-05-06 23:09 51.28385 -45.42467 34172 ft 450 kts 253°
2026-05-06 23:10 51.26032 -45.51719 34171 ft 450 kts 253°
2026-05-06 23:10 51.23671 -45.60966 34154 ft 450 kts 253°
2026-05-06 23:11 51.21301 -45.70208 34167 ft 450 kts 253°
2026-05-06 23:11 51.18922 -45.79448 34173 ft 451 kts 252°
2026-05-06 23:12 51.16531 -45.88698 34173 ft 452 kts 252°
2026-05-06 23:12 51.14130 -45.97947 34181 ft 452 kts 252°
2026-05-06 23:13 51.11723 -46.07183 34160 ft 452 kts 252°
2026-05-06 23:13 51.09310 -46.16400 34170 ft 451 kts 252°
2026-05-06 23:14 51.06894 -46.25596 34173 ft 451 kts 251°
2026-05-06 23:14 51.04467 -46.34795 34173 ft 451 kts 251°
2026-05-06 23:15 51.02036 -46.43972 34174 ft 451 kts 251°
2026-05-06 23:15 50.99599 -46.53136 34168 ft 450 kts 251°
2026-05-06 23:16 50.97156 -46.62286 34175 ft 450 kts 251°
2026-05-06 23:16 50.94704 -46.71432 34168 ft 451 kts 251°
2026-05-06 23:17 50.92244 -46.80573 34174 ft 451 kts 251°
2026-05-06 23:17 50.89776 -46.89705 34171 ft 451 kts 250°
2026-05-06 23:18 50.87300 -46.98832 34174 ft 451 kts 250°
2026-05-06 23:18 50.84818 -47.07947 34166 ft 451 kts 250°
2026-05-06 23:19 50.82326 -47.17061 34170 ft 451 kts 250°
2026-05-06 23:19 50.79844 -47.26106 34186 ft 451 kts 250°
2026-05-06 23:20 50.77337 -47.35202 34176 ft 452 kts 249°
2026-05-06 23:20 50.74823 -47.44292 34187 ft 452 kts 249°
2026-05-06 23:21 50.72726 -47.51844 34170 ft 452 kts 249°
2026-05-06 23:21 50.70198 -47.60919 34170 ft 452 kts 249°
2026-05-06 23:22 50.67660 -47.69993 34175 ft 452 kts 249°
2026-05-06 23:22 50.65114 -47.79062 34185 ft 452 kts 249°
2026-05-06 23:23 50.62562 -47.88118 34185 ft 452 kts 249°
2026-05-06 23:23 50.60002 -47.97167 34184 ft 452 kts 249°
2026-05-06 23:24 50.57435 -48.06208 34184 ft 453 kts 249°
2026-05-06 23:24 50.54858 -48.15244 34164 ft 453 kts 249°
2026-05-06 23:25 50.52278 -48.24265 34182 ft 453 kts 249°
2026-05-06 23:25 50.49683 -48.33298 34182 ft 454 kts 248°
2026-05-06 23:26 50.47076 -48.42338 34180 ft 455 kts 248°
2026-05-06 23:26 50.44458 -48.51383 34183 ft 456 kts 248°
2026-05-06 23:27 50.41830 -48.60430 34175 ft 456 kts 248°
2026-05-06 23:27 50.39192 -48.69476 34180 ft 456 kts 248°
2026-05-06 23:28 50.36564 -48.78449 34180 ft 456 kts 248°
2026-05-06 23:28 50.33896 -48.87529 34179 ft 456 kts 248°
2026-05-06 23:29 50.31258 -48.96473 34179 ft 456 kts 248°
2026-05-06 23:29 50.28597 -49.05464 34178 ft 455 kts 247°
2026-05-06 23:30 50.25930 -49.14440 34181 ft 455 kts 247°
2026-05-06 23:30 50.23257 -49.23400 34182 ft 455 kts 247°
2026-05-06 23:31 50.20575 -49.32362 34186 ft 455 kts 247°
2026-05-06 23:31 50.17885 -49.41314 34184 ft 456 kts 247°
2026-05-06 23:32 50.15187 -49.50259 34184 ft 456 kts 247°
2026-05-06 23:32 50.12481 -49.59200 34188 ft 456 kts 247°
2026-05-06 23:33 50.09764 -49.68143 34183 ft 457 kts 247°
2026-05-06 23:33 50.07038 -49.77080 34183 ft 457 kts 246°
2026-05-06 23:34 50.04301 -49.86021 34180 ft 458 kts 246°
2026-05-06 23:34 50.01557 -49.94956 34189 ft 458 kts 246°
2026-05-06 23:35 49.98987 -50.04001 34191 ft 457 kts 251°
2026-05-06 23:35 49.96793 -50.13268 34185 ft 457 kts 251°
2026-05-06 23:36 49.94587 -50.22540 34179 ft 458 kts 251°
2026-05-06 23:36 49.92357 -50.31796 34176 ft 458 kts 251°
2026-05-06 23:37 49.90109 -50.41052 34190 ft 459 kts 251°
2026-05-06 23:37 49.87851 -50.50307 34185 ft 459 kts 251°
2026-05-06 23:38 49.85583 -50.59563 34188 ft 459 kts 251°
2026-05-06 23:38 49.83322 -50.68755 34188 ft 460 kts 251°
2026-05-06 23:39 49.81038 -50.78003 34191 ft 460 kts 251°
2026-05-06 23:39 49.78748 -50.87237 34195 ft 460 kts 251°
2026-05-06 23:40 49.76445 -50.96480 34189 ft 460 kts 251°
2026-05-06 23:40 49.74141 -51.05693 34186 ft 459 kts 251°
2026-05-06 23:41 49.71834 -51.14880 34180 ft 458 kts 251°
2026-05-06 23:41 49.69523 -51.24043 34185 ft 457 kts 251°
2026-05-06 23:42 49.67208 -51.33189 34189 ft 457 kts 251°
2026-05-06 23:42 49.64884 -51.42331 34187 ft 458 kts 251°
2026-05-06 23:43 49.62553 -51.51463 34188 ft 458 kts 251°
2026-05-06 23:43 49.60212 -51.60597 34185 ft 458 kts 251°
2026-05-06 23:44 49.57860 -51.69735 34191 ft 459 kts 251°
2026-05-06 23:44 49.55515 -51.78812 34184 ft 459 kts 251°
2026-05-06 23:45 49.53143 -51.87952 34196 ft 460 kts 251°
2026-05-06 23:45 49.50761 -51.97100 34189 ft 461 kts 251°
2026-05-06 23:46 49.48284 -52.06207 34228 ft 464 kts 249°
2026-05-06 23:46 49.46952 -52.10723 34510 ft 463 kts 248°
2026-05-06 23:46 49.45605 -52.15208 34930 ft 460 kts 248°
2026-05-06 23:46 49.44266 -52.19652 35355 ft 457 kts 248°
2026-05-06 23:47 49.42939 -52.24069 35736 ft 454 kts 248°
2026-05-06 23:47 49.41622 -52.28467 36070 ft 453 kts 248°
2026-05-06 23:47 49.40304 -52.32890 36126 ft 457 kts 248°
2026-05-06 23:48 49.37659 -52.41772 36171 ft 457 kts 248°
2026-05-06 23:48 49.35025 -52.50588 36167 ft 452 kts 249°
2026-05-06 23:49 49.32403 -52.59340 36175 ft 451 kts 249°
2026-05-06 23:49 49.29775 -52.68077 36181 ft 451 kts 249°
2026-05-06 23:50 49.27146 -52.76789 36186 ft 452 kts 249°
2026-05-06 23:50 49.23168 -52.89908 36176 ft 453 kts 249°
2026-05-06 23:51 49.20508 -52.98637 36186 ft 453 kts 249°
2026-05-06 23:51 49.17845 -53.07346 36171 ft 452 kts 249°
2026-05-06 23:52 49.15183 -53.16022 36172 ft 450 kts 249°
2026-05-06 23:52 49.12520 -53.24672 36164 ft 449 kts 249°
2026-05-06 23:53 49.09859 -53.33285 36155 ft 448 kts 248°
2026-05-06 23:53 49.07200 -53.41863 36155 ft 447 kts 248°
2026-05-06 23:54 49.04538 -53.50422 36165 ft 446 kts 248°
2026-05-06 23:54 49.01873 -53.58960 36153 ft 446 kts 248°
2026-05-06 23:55 48.99202 -53.67487 36149 ft 446 kts 248°
2026-05-06 23:55 48.96526 -53.76002 36149 ft 446 kts 248°
2026-05-06 23:56 48.93840 -53.84519 36152 ft 446 kts 248°
2026-05-06 23:56 48.91148 -53.93027 36156 ft 447 kts 248°
2026-05-06 23:57 48.88449 -54.01527 36167 ft 446 kts 248°
2026-05-06 23:57 48.85749 -54.10000 36152 ft 445 kts 247°
2026-05-06 23:58 48.83046 -54.18456 36164 ft 445 kts 247°
2026-05-06 23:58 48.80341 -54.26889 36155 ft 444 kts 247°
2026-05-06 23:59 48.77651 -54.35248 36165 ft 444 kts 247°
2026-05-06 23:59 48.74943 -54.43634 36137 ft 443 kts 247°
2026-05-07 00:00 48.72226 -54.52022 36160 ft 443 kts 247°
2026-05-07 00:00 48.69948 -54.59032 36155 ft 443 kts 247°
2026-05-07 00:01 48.66781 -54.68746 36143 ft 443 kts 247°
2026-05-07 00:01 48.64048 -54.77097 36163 ft 443 kts 247°
2026-05-07 00:02 48.61309 -54.85444 36152 ft 443 kts 247°
2026-05-07 00:02 48.58558 -54.93795 36160 ft 445 kts 247°
2026-05-07 00:03 48.55794 -55.02163 36156 ft 446 kts 246°
2026-05-07 00:03 48.53015 -55.10542 36158 ft 447 kts 246°
2026-05-07 00:04 48.50225 -55.18931 36156 ft 448 kts 246°
2026-05-07 00:04 48.47427 -55.27314 36155 ft 448 kts 246°
2026-05-07 00:05 48.44625 -55.35682 36148 ft 448 kts 246°
2026-05-07 00:05 48.41817 -55.44041 36148 ft 447 kts 246°
2026-05-07 00:06 48.39002 -55.52393 36144 ft 447 kts 246°
2026-05-07 00:06 48.36187 -55.60721 36141 ft 446 kts 246°
2026-05-07 00:07 48.33371 -55.69022 36149 ft 445 kts 246°
2026-05-07 00:07 48.30552 -55.77306 36138 ft 445 kts 246°
2026-05-07 00:08 48.27730 -55.85573 36138 ft 445 kts 246°
2026-05-07 00:08 48.25382 -55.92433 36139 ft 445 kts 246°
2026-05-07 00:09 48.22553 -56.00670 36138 ft 444 kts 245°
2026-05-07 00:09 48.19724 -56.08881 36136 ft 442 kts 245°
2026-05-07 00:10 48.16900 -56.17053 36130 ft 441 kts 245°
2026-05-07 00:10 48.14077 -56.25198 36128 ft 440 kts 245°
2026-05-07 00:11 48.11251 -56.33323 36129 ft 440 kts 245°
2026-05-07 00:11 48.08422 -56.41436 36122 ft 440 kts 245°
2026-05-07 00:12 48.05588 -56.49533 36126 ft 440 kts 245°
2026-05-07 00:12 48.02744 -56.57638 36145 ft 440 kts 245°
2026-05-07 00:13 47.99890 -56.65743 36157 ft 441 kts 245°
2026-05-07 00:13 47.97027 -56.73849 36150 ft 442 kts 245°
2026-05-07 00:14 47.94173 -56.81902 36175 ft 442 kts 245°
2026-05-07 00:14 47.91295 -56.90003 36197 ft 442 kts 244°
2026-05-07 00:15 47.88410 -56.98094 36196 ft 441 kts 244°
2026-05-07 00:15 47.85531 -57.06143 36193 ft 439 kts 244°
2026-05-07 00:16 47.82662 -57.14143 36198 ft 437 kts 244°
2026-05-07 00:16 47.79800 -57.22099 36207 ft 436 kts 244°
2026-05-07 00:17 47.76938 -57.30030 36198 ft 435 kts 244°
2026-05-07 00:17 47.74074 -57.37944 36204 ft 434 kts 244°
2026-05-07 00:18 47.71205 -57.45846 36199 ft 435 kts 244°
2026-05-07 00:18 47.68328 -57.53749 36216 ft 436 kts 244°
2026-05-07 00:19 47.65439 -57.61661 36216 ft 437 kts 244°
2026-05-07 00:19 47.62536 -57.69589 36206 ft 438 kts 244°
2026-05-07 00:20 47.59617 -57.77533 36214 ft 439 kts 244°
2026-05-07 00:20 47.56688 -57.85478 36216 ft 439 kts 244°
2026-05-07 00:21 47.53778 -57.93350 36198 ft 438 kts 244°
2026-05-07 00:21 47.50855 -58.01235 36186 ft 436 kts 244°
2026-05-07 00:22 47.47942 -58.09070 36187 ft 434 kts 244°
2026-05-07 00:22 47.45038 -58.16859 36181 ft 432 kts 244°
2026-05-07 00:23 47.42135 -58.24624 36182 ft 431 kts 243°
2026-05-07 00:23 47.39231 -58.32365 36171 ft 431 kts 243°
2026-05-07 00:24 47.36324 -58.40096 36156 ft 431 kts 243°
2026-05-07 00:24 47.33407 -58.47827 36156 ft 432 kts 243°
2026-05-07 00:25 47.30482 -58.55561 36151 ft 432 kts 243°
2026-05-07 00:25 47.27548 -58.63292 36147 ft 433 kts 243°
2026-05-07 00:26 47.24607 -58.71023 36136 ft 433 kts 243°
2026-05-07 00:26 47.21658 -58.78749 36133 ft 433 kts 243°
2026-05-07 00:27 47.18715 -58.86440 36121 ft 431 kts 243°
2026-05-07 00:27 47.15777 -58.94096 36118 ft 429 kts 242°
2026-05-07 00:28 47.12847 -59.01707 36112 ft 427 kts 242°
2026-05-07 00:28 47.09925 -59.09279 36103 ft 426 kts 242°
2026-05-07 00:29 47.07002 -59.16831 36101 ft 425 kts 242°
2026-05-07 00:30 47.01148 -59.31893 36100 ft 425 kts 242°
2026-05-07 00:30 46.98211 -59.39419 36102 ft 426 kts 242°
2026-05-07 00:31 46.95264 -59.46949 36088 ft 427 kts 242°
2026-05-07 00:31 46.92307 -59.54483 36088 ft 427 kts 242°
2026-05-07 00:32 46.89339 -59.62024 36085 ft 428 kts 242°
2026-05-07 00:32 46.86363 -59.69564 36079 ft 429 kts 242°
2026-05-07 00:33 46.83379 -59.77105 36082 ft 429 kts 242°
2026-05-07 00:33 46.80408 -59.84591 36068 ft 429 kts 242°
2026-05-07 00:34 46.77415 -59.92113 36058 ft 429 kts 242°
2026-05-07 00:34 46.74414 -59.99633 36065 ft 428 kts 241°
2026-05-07 00:35 46.71419 -60.07119 36061 ft 427 kts 241°
2026-05-07 00:35 46.68424 -60.14584 36062 ft 427 kts 241°
2026-05-07 00:36 46.65424 -60.22041 36060 ft 426 kts 241°
2026-05-07 00:36 46.62426 -60.29472 36049 ft 425 kts 241°
2026-05-07 00:37 46.59427 -60.36886 36060 ft 425 kts 241°
2026-05-07 00:37 46.56424 -60.44289 36071 ft 426 kts 241°
2026-05-07 00:38 46.53413 -60.51693 36068 ft 426 kts 240°
2026-05-07 00:38 46.50401 -60.59080 36059 ft 425 kts 240°
2026-05-07 00:39 46.47411 -60.66392 36061 ft 423 kts 240°
2026-05-07 00:39 46.44404 -60.73725 36075 ft 422 kts 240°
2026-05-07 00:40 46.41399 -60.81037 36075 ft 422 kts 240°
2026-05-07 00:40 46.38393 -60.88329 36074 ft 421 kts 240°
2026-05-07 00:41 46.35386 -60.95607 36067 ft 421 kts 240°
2026-05-07 00:41 46.32371 -61.02884 36077 ft 422 kts 240°
2026-05-07 00:42 46.29351 -61.10156 36071 ft 422 kts 240°
2026-05-07 00:42 46.26322 -61.17424 36078 ft 423 kts 240°
2026-05-07 00:43 46.23284 -61.24698 36078 ft 423 kts 239°
2026-05-07 00:43 46.20238 -61.31972 36065 ft 424 kts 240°
2026-05-07 00:44 46.17184 -61.39248 36080 ft 424 kts 239°
2026-05-07 00:44 46.14129 -61.46507 36077 ft 423 kts 239°
2026-05-07 00:45 46.11073 -61.53747 36064 ft 422 kts 239°
2026-05-07 00:45 46.08022 -61.60957 36056 ft 421 kts 239°
2026-05-07 00:46 46.04978 -61.68134 36068 ft 419 kts 239°
2026-05-07 00:46 46.01938 -61.75283 36069 ft 419 kts 239°
2026-05-07 00:47 45.98890 -61.82431 36072 ft 419 kts 239°
2026-05-07 00:47 45.95842 -61.89561 36063 ft 419 kts 239°
2026-05-07 00:48 45.92791 -61.96679 36055 ft 418 kts 239°
2026-05-07 00:48 45.89733 -62.03796 36053 ft 419 kts 239°
2026-05-07 00:49 45.86673 -62.10901 36052 ft 419 kts 239°
2026-05-07 00:49 45.83604 -62.18006 36069 ft 419 kts 238°
2026-05-07 00:50 45.80532 -62.25104 36031 ft 419 kts 237°
2026-05-07 00:50 45.77457 -62.32187 36051 ft 419 kts 237°
2026-05-07 00:51 45.74376 -62.39266 36050 ft 418 kts 237°
2026-05-07 00:51 45.71294 -62.46332 36053 ft 418 kts 237°
2026-05-07 00:52 45.68209 -62.53385 36034 ft 418 kts 237°
2026-05-07 00:52 45.65137 -62.60390 36041 ft 418 kts 237°
2026-05-07 00:53 45.62038 -62.67441 36042 ft 419 kts 237°
2026-05-07 00:53 45.58930 -62.74496 36048 ft 420 kts 237°
2026-05-07 00:54 45.55809 -62.81560 36055 ft 421 kts 237°
2026-05-07 00:54 45.52676 -62.88633 36041 ft 422 kts 237°
2026-05-07 00:55 45.49537 -62.95705 36053 ft 422 kts 237°
2026-05-07 00:55 45.46393 -63.02771 36054 ft 423 kts 237°
2026-05-07 00:56 45.43242 -63.09830 36053 ft 422 kts 237°
2026-05-07 00:56 45.40093 -63.16869 36042 ft 421 kts 237°
2026-05-07 00:57 45.37457 -63.22749 36038 ft 420 kts 237°
2026-05-07 00:57 45.34336 -63.29696 36049 ft 419 kts 237°
2026-05-07 00:58 45.31196 -63.36666 36055 ft 418 kts 237°
2026-05-07 00:58 45.28055 -63.43622 36051 ft 418 kts 237°
2026-05-07 00:59 45.23337 -63.54039 36042 ft 418 kts 237°
2026-05-07 01:00 45.20187 -63.60971 36044 ft 418 kts 237°
2026-05-07 01:00 45.17037 -63.67888 36043 ft 418 kts 237°
2026-05-07 01:01 45.13883 -63.74796 36044 ft 417 kts 237°
2026-05-07 01:01 45.10725 -63.81698 36035 ft 418 kts 236°
2026-05-07 01:02 45.07566 -63.88584 36029 ft 417 kts 236°
2026-05-07 01:02 45.04409 -63.95449 36028 ft 416 kts 236°
2026-05-07 01:03 45.01252 -64.02296 36030 ft 415 kts 236°
2026-05-07 01:03 44.98098 -64.09122 35997 ft 415 kts 236°
2026-05-07 01:04 44.94941 -64.15938 36014 ft 415 kts 236°
2026-05-07 01:04 44.91779 -64.22748 36019 ft 415 kts 236°
2026-05-07 01:05 44.88611 -64.29556 36015 ft 415 kts 236°
2026-05-07 01:05 44.85435 -64.36362 36011 ft 416 kts 236°
2026-05-07 01:06 44.82249 -64.43177 35997 ft 416 kts 237°
2026-05-07 01:06 44.79059 -64.49982 36000 ft 417 kts 237°
2026-05-07 01:07 44.75859 -64.56792 36015 ft 418 kts 237°
2026-05-07 01:07 44.72654 -64.63598 36008 ft 417 kts 236°
2026-05-07 01:08 44.69445 -64.70396 35995 ft 417 kts 237°
2026-05-07 01:08 44.66238 -64.77174 35999 ft 416 kts 237°
2026-05-07 01:09 44.63032 -64.83932 35999 ft 416 kts 237°
2026-05-07 01:09 44.59824 -64.90681 36001 ft 415 kts 236°
2026-05-07 01:10 44.56613 -64.97419 36002 ft 415 kts 236°
2026-05-07 01:10 44.53399 -65.04148 36003 ft 415 kts 237°
2026-05-07 01:11 44.50180 -65.10871 36011 ft 416 kts 237°
2026-05-07 01:11 44.46947 -65.17608 36010 ft 417 kts 237°
2026-05-07 01:12 44.43731 -65.24294 36014 ft 417 kts 237°
2026-05-07 01:12 44.40484 -65.31029 36021 ft 418 kts 237°
2026-05-07 01:13 44.37228 -65.37766 36007 ft 418 kts 237°
2026-05-07 01:13 44.33970 -65.44494 36012 ft 418 kts 237°
2026-05-07 01:14 44.30709 -65.51209 36014 ft 418 kts 237°
2026-05-07 01:14 44.27447 -65.57913 36014 ft 417 kts 237°
2026-05-07 01:15 44.24187 -65.64596 35998 ft 416 kts 237°
2026-05-07 01:15 44.20930 -65.71259 36001 ft 415 kts 237°
2026-05-07 01:16 44.17675 -65.77902 35994 ft 415 kts 237°
2026-05-07 01:16 44.14421 -65.84528 36003 ft 414 kts 237°
2026-05-07 01:17 44.11167 -65.91138 35992 ft 414 kts 237°
2026-05-07 01:17 44.07913 -65.97734 35994 ft 413 kts 237°
2026-05-07 01:18 44.04656 -66.04321 36001 ft 413 kts 237°
2026-05-07 01:18 44.01397 -66.10898 35991 ft 413 kts 237°
2026-05-07 01:19 43.98140 -66.17454 35976 ft 412 kts 237°
2026-05-07 01:19 43.94886 -66.23989 35981 ft 411 kts 237°
2026-05-07 01:20 43.91635 -66.30505 35981 ft 410 kts 237°
2026-05-07 01:20 43.88405 -66.36964 35977 ft 410 kts 237°
2026-05-07 01:21 43.85153 -66.43454 35962 ft 410 kts 237°
2026-05-07 01:21 43.81894 -66.49943 35959 ft 411 kts 237°
2026-05-07 01:22 43.78625 -66.56436 35953 ft 411 kts 237°
2026-05-07 01:22 43.75345 -66.62937 35950 ft 412 kts 237°
2026-05-07 01:23 43.72059 -66.69436 35927 ft 413 kts 237°
2026-05-07 01:23 43.68766 -66.75933 35942 ft 413 kts 237°
2026-05-07 01:24 43.65469 -66.82422 35914 ft 413 kts 237°
2026-05-07 01:24 43.62169 -66.88903 35923 ft 412 kts 237°